Time,TemperatureF,DewpointF,PressureIn,WindDirection,WindDirectionDegrees,WindSpeedMPH,WindSpeedGustMPH,Humidity,HourlyPrecipIn,Conditions,Clouds,dailyrainin,SoftwareType,DateUTC
2013-01-02 00:07:00,47.5,28.0,30.16,WSW,239,0.0,0.0,48,0.00,,,0.00,weatherlink.com 1.10,2013-01-02 08:07:00,
2013-01-02 00:22:00,45.5,29.0,30.16,WSW,239,0.0,0.0,52,0.00,,,0.00,weatherlink.com 1.10,2013-01-02 08:22:00,
2013-01-02 00:37:00,43.8,28.0,30.14,SW,232,1.0,1.0,54,0.00,,,0.00,weatherlink.com 1.10,2013-01-02 08:37:00,
2013-01-02 00:52:00,43.9,28.0,30.14,NNE,12,0.0,0.0,55,0.00,,,0.00,weatherlink.com 1.10,2013-01-02 08:52:00,
2013-01-02 01:07:00,44.4,28.0,30.14,North,359,2.0,2.0,52,0.00,,,0.00,weatherlink.com 1.10,2013-01-02 09:07:00,
2013-01-02 01:22:00,45.3,27.0,30.14,NNW,328,0.0,1.0,50,0.00,,,0.00,weatherlink.com 1.10,2013-01-02 09:22:00,
2013-01-02 01:37:00,44.2,27.0,30.14,NE,40,0.0,1.0,52,0.00,,,0.00,weatherlink.com 1.10,2013-01-02 09:37:00,
2013-01-02 01:52:00,43.4,28.0,30.13,NE,39,0.0,0.0,55,0.00,,,0.00,weatherlink.com 1.10,2013-01-02 09:52:00,
2013-01-02 02:07:00,43.3,27.0,30.13,NW,305,1.0,1.0,54,0.00,,,0.00,weatherlink.com 1.10,2013-01-02 10:07:00,
2013-01-02 02:22:00,43.7,28.0,30.12,NW,310,0.0,1.0,54,0.00,,,0.00,weatherlink.com 1.10,2013-01-02 10:22:00,
2013-01-02 02:37:00,43.9,26.0,30.12,WNW,297,0.0,1.0,49,0.00,,,0.00,weatherlink.com 1.10,2013-01-02 10:37:00,
2013-01-02 02:52:00,43.7,25.0,30.12,WNW,297,0.0,0.0,49,0.00,,,0.00,weatherlink.com 1.10,2013-01-02 10:52:00,
2013-01-02 03:07:00,43.4,26.0,30.11,SSW,211,0.0,1.0,51,0.00,,,0.00,weatherlink.com 1.10,2013-01-02 11:07:00,
2013-01-02 03:22:00,43.2,28.0,30.10,SSE,150,0.0,1.0,55,0.00,,,0.00,weatherlink.com 1.10,2013-01-02 11:22:00,
2013-01-02 03:37:00,43.3,28.0,30.10,West,271,0.0,1.0,55,0.00,,,0.00,weatherlink.com 1.10,2013-01-02 11:37:00,
2013-01-02 03:52:00,42.2,26.0,30.10,West,271,0.0,0.0,54,0.00,,,0.00,weatherlink.com 1.10,2013-01-02 11:52:00,
2013-01-02 04:07:00,42.1,26.0,30.10,South,170,0.0,2.0,54,0.00,,,0.00,weatherlink.com 1.10,2013-01-02 12:07:00,
2013-01-02 04:22:00,43.4,22.0,30.09,South,173,0.0,2.0,43,0.00,,,0.00,weatherlink.com 1.10,2013-01-02 12:22:00,
2013-01-02 04:37:00,44.9,24.0,30.09,SW,224,2.0,2.0,44,0.00,,,0.00,weatherlink.com 1.10,2013-01-02 12:37:00,
2013-01-02 04:52:00,45.3,24.0,30.09,WSW,239,0.0,1.0,43,0.00,,,0.00,weatherlink.com 1.10,2013-01-02 12:52:00,
2013-01-02 05:07:00,44.8,23.0,30.09,NNW,338,0.0,1.0,43,0.00,,,0.00,weatherlink.com 1.10,2013-01-02 13:07:00,
2013-01-02 05:22:00,45.1,23.0,30.09,ENE,68,0.0,2.0,42,0.00,,,0.00,weatherlink.com 1.10,2013-01-02 13:22:00,
2013-01-02 05:37:00,48.2,21.0,30.09,North,356,0.0,5.0,34,0.00,,,0.00,weatherlink.com 1.10,2013-01-02 13:37:00,
2013-01-02 06:08:00,54.8,16.0,30.08,NNE,22,3.0,9.0,22,0.00,,,0.00,weatherlink.com 1.10,2013-01-02 14:08:00,
2013-01-02 06:23:00,55.3,16.0,30.08,NE,40,3.0,8.0,21,0.00,,,0.00,weatherlink.com 1.10,2013-01-02 14:23:00,
2013-01-02 06:38:00,55.1,18.0,30.08,WNW,290,1.0,6.0,23,0.00,,,0.00,weatherlink.com 1.10,2013-01-02 14:38:00,
2013-01-02 06:53:00,54.9,18.0,30.08,SW,236,0.0,3.0,23,0.00,,,0.00,weatherlink.com 1.10,2013-01-02 14:53:00,
2013-01-02 07:08:00,52.9,20.0,30.08,SW,236,0.0,0.0,27,0.00,,,0.00,weatherlink.com 1.10,2013-01-02 15:08:00,
2013-01-02 07:23:00,51.2,19.0,30.09,SSE,155,0.0,4.0,28,0.00,,,0.00,weatherlink.com 1.10,2013-01-02 15:23:00,
2013-01-02 07:38:00,50.4,22.0,30.09,SSE,156,0.0,1.0,33,0.00,,,0.00,weatherlink.com 1.10,2013-01-02 15:38:00,
2013-01-02 07:53:00,52.1,22.0,30.08,South,187,0.0,1.0,31,0.00,,,0.00,weatherlink.com 1.10,2013-01-02 15:53:00,
2013-01-02 08:08:00,57.0,23.0,30.09,SSE,164,0.0,4.0,27,0.00,,,0.00,weatherlink.com 1.10,2013-01-02 16:08:00,
2013-01-02 08:23:00,55.5,24.0,30.10,SW,235,0.0,1.0,29,0.00,,,0.00,weatherlink.com 1.10,2013-01-02 16:23:00,
2013-01-02 08:38:00,54.7,24.0,30.11,WSW,245,0.0,0.0,30,0.00,,,0.00,weatherlink.com 1.10,2013-01-02 16:38:00,
2013-01-02 08:53:00,56.1,23.0,30.11,SW,233,0.0,0.0,28,0.00,,,0.00,weatherlink.com 1.10,2013-01-02 16:53:00,
2013-01-02 09:08:00,57.3,25.0,30.11,NW,311,0.0,1.0,29,0.00,,,0.00,weatherlink.com 1.10,2013-01-02 17:08:00,
2013-01-02 09:23:00,58.2,26.0,30.11,WNW,298,0.0,2.0,29,0.00,,,0.00,weatherlink.com 1.10,2013-01-02 17:23:00,
2013-01-02 09:38:00,59.3,24.0,30.12,SSE,159,2.0,3.0,26,0.00,,,0.00,weatherlink.com 1.10,2013-01-02 17:38:00,
2013-01-02 09:53:00,59.9,23.0,30.12,SSE,159,1.0,2.0,24,0.00,,,0.00,weatherlink.com 1.10,2013-01-02 17:53:00,
2013-01-02 10:08:00,60.6,24.0,30.11,ESE,120,0.0,5.0,25,0.00,,,0.00,weatherlink.com 1.10,2013-01-02 18:08:00,
2013-01-02 10:23:00,61.8,26.0,30.12,SSE,149,2.0,4.0,26,0.00,,,0.00,weatherlink.com 1.10,2013-01-02 18:23:00,
2013-01-02 10:53:00,63.5,29.0,30.11,SSE,154,1.0,6.0,27,0.00,,,0.00,weatherlink.com 1.10,2013-01-02 18:53:00,
2013-01-02 11:08:00,63.7,29.0,30.11,SSE,158,2.0,5.0,27,0.00,,,0.00,weatherlink.com 1.10,2013-01-02 19:08:00,
2013-01-02 11:23:00,64.3,28.0,30.11,South,169,2.0,3.0,25,0.00,,,0.00,weatherlink.com 1.10,2013-01-02 19:23:00,
2013-01-02 11:38:00,64.9,29.0,30.10,SSE,158,2.0,3.0,26,0.00,,,0.00,weatherlink.com 1.10,2013-01-02 19:38:00,
2013-01-02 11:53:00,64.6,28.0,30.09,SSE,158,1.0,4.0,25,0.00,,,0.00,weatherlink.com 1.10,2013-01-02 19:53:00,
2013-01-02 12:08:00,65.6,30.0,30.09,South,184,2.0,4.0,26,0.00,,,0.00,weatherlink.com 1.10,2013-01-02 20:08:00,
2013-01-02 12:23:00,65.7,28.0,30.09,SE,142,2.0,5.0,24,0.00,,,0.00,weatherlink.com 1.10,2013-01-02 20:23:00,
2013-01-02 12:38:00,66.3,25.0,30.08,SSE,158,0.0,3.0,21,0.00,,,0.00,weatherlink.com 1.10,2013-01-02 20:38:00,
2013-01-02 12:53:00,66.9,28.0,30.07,SE,145,1.0,5.0,23,0.00,,,0.00,weatherlink.com 1.10,2013-01-02 20:53:00,
2013-01-02 13:08:00,66.3,29.0,30.07,NW,309,1.0,5.0,25,0.00,,,0.00,weatherlink.com 1.10,2013-01-02 21:08:00,
2013-01-02 13:23:00,65.7,28.0,30.07,SSE,165,3.0,5.0,24,0.00,,,0.00,weatherlink.com 1.10,2013-01-02 21:23:00,
2013-01-02 13:38:00,65.7,28.0,30.07,WSW,249,0.0,5.0,24,0.00,,,0.00,weatherlink.com 1.10,2013-01-02 21:38:00,
2013-01-02 13:53:00,65.8,27.0,30.07,South,181,0.0,2.0,23,0.00,,,0.00,weatherlink.com 1.10,2013-01-02 21:53:00,
2013-01-02 14:08:00,65.9,25.0,30.06,South,173,2.0,4.0,21,0.00,,,0.00,weatherlink.com 1.10,2013-01-02 22:08:00,
2013-01-02 14:23:00,65.7,26.0,30.06,SW,232,0.0,1.0,22,0.00,,,0.00,weatherlink.com 1.10,2013-01-02 22:23:00,
2013-01-02 14:38:00,64.7,26.0,30.07,West,280,0.0,1.0,23,0.00,,,0.00,weatherlink.com 1.10,2013-01-02 22:38:00,
2013-01-02 14:53:00,64.1,23.0,30.06,West,280,0.0,1.0,21,0.00,,,0.00,weatherlink.com 1.10,2013-01-02 22:53:00,
2013-01-02 15:08:00,63.1,23.0,30.06,West,278,0.0,1.0,22,0.00,,,0.00,weatherlink.com 1.10,2013-01-02 23:08:00,
2013-01-02 15:23:00,62.5,23.0,30.06,West,264,0.0,1.0,22,0.00,,,0.00,weatherlink.com 1.10,2013-01-02 23:23:00,
2013-01-02 15:38:00,62.0,25.0,30.06,NW,309,0.0,1.0,24,0.00,,,0.00,weatherlink.com 1.10,2013-01-02 23:38:00,
2013-01-02 15:53:00,61.4,26.0,30.06,West,267,0.0,1.0,26,0.00,,,0.00,weatherlink.com 1.10,2013-01-02 23:53:00,
2013-01-02 16:08:00,61.0,28.0,30.06,NNW,338,0.0,1.0,29,0.00,,,0.00,weatherlink.com 1.10,2013-01-03 00:08:00,
2013-01-02 16:23:00,59.9,29.0,30.06,NNW,339,0.0,0.0,31,0.00,,,0.00,weatherlink.com 1.10,2013-01-03 00:23:00,
2013-01-02 16:38:00,58.4,31.0,30.06,WNW,301,0.0,0.0,36,0.00,,,0.00,weatherlink.com 1.10,2013-01-03 00:38:00,
2013-01-02 16:54:00,56.6,32.0,30.06,WNW,300,0.0,0.0,39,0.00,,,0.00,weatherlink.com 1.10,2013-01-03 00:54:00,
2013-01-02 17:09:00,55.3,32.0,30.07,WNW,301,0.0,0.0,41,0.00,,,0.00,weatherlink.com 1.10,2013-01-03 01:09:00,
2013-01-02 17:24:00,54.1,31.0,30.07,WNW,300,0.0,0.0,42,0.00,,,0.00,weatherlink.com 1.10,2013-01-03 01:24:00,
2013-01-02 17:40:00,53.7,32.0,30.07,WNW,300,0.0,0.0,44,0.00,,,0.00,weatherlink.com 1.10,2013-01-03 01:40:00,
2013-01-02 17:54:00,52.2,32.0,30.07,WNW,300,0.0,0.0,46,0.00,,,0.00,weatherlink.com 1.10,2013-01-03 01:54:00,
2013-01-02 18:09:00,51.1,34.0,30.08,WNW,301,0.0,0.0,52,0.00,,,0.00,weatherlink.com 1.10,2013-01-03 02:09:00,
2013-01-02 18:24:00,50.3,35.0,30.08,WNW,301,0.0,0.0,56,0.00,,,0.00,weatherlink.com 1.10,2013-01-03 02:24:00,
2013-01-02 18:39:00,49.1,35.0,30.08,WNW,300,0.0,0.0,58,0.00,,,0.00,weatherlink.com 1.10,2013-01-03 02:39:00,
2013-01-02 18:54:00,48.4,36.0,30.08,WNW,301,0.0,0.0,62,0.00,,,0.00,weatherlink.com 1.10,2013-01-03 02:54:00,
2013-01-02 19:09:00,47.8,36.0,30.09,WNW,301,0.0,0.0,64,0.00,,,0.00,weatherlink.com 1.10,2013-01-03 03:09:00,
2013-01-02 19:24:00,47.1,36.0,30.08,WNW,300,0.0,0.0,66,0.00,,,0.00,weatherlink.com 1.10,2013-01-03 03:24:00,
2013-01-02 19:39:00,46.5,36.0,30.08,WNW,301,0.0,0.0,68,0.00,,,0.00,weatherlink.com 1.10,2013-01-03 03:39:00,
2013-01-02 19:54:00,45.9,36.0,30.09,WNW,300,0.0,0.0,69,0.00,,,0.00,weatherlink.com 1.10,2013-01-03 03:54:00,
2013-01-02 20:09:00,45.4,36.0,30.08,WNW,301,0.0,0.0,71,0.00,,,0.00,weatherlink.com 1.10,2013-01-03 04:09:00,
2013-01-02 20:24:00,45.2,36.0,30.08,WNW,301,0.0,0.0,71,0.00,,,0.00,weatherlink.com 1.10,2013-01-03 04:24:00,
2013-01-02 20:39:00,44.9,37.0,30.08,WNW,301,0.0,0.0,73,0.00,,,0.00,weatherlink.com 1.10,2013-01-03 04:39:00,
2013-01-02 20:54:00,44.6,36.0,30.08,WNW,301,0.0,0.0,73,0.00,,,0.00,weatherlink.com 1.10,2013-01-03 04:54:00,
2013-01-02 21:09:00,44.3,36.0,30.09,WNW,301,0.0,0.0,72,0.00,,,0.00,weatherlink.com 1.10,2013-01-03 05:09:00,
2013-01-02 21:24:00,44.1,36.0,30.09,WNW,301,0.0,0.0,72,0.00,,,0.00,weatherlink.com 1.10,2013-01-03 05:24:00,
2013-01-02 21:39:00,43.7,36.0,30.09,WNW,301,0.0,0.0,73,0.00,,,0.00,weatherlink.com 1.10,2013-01-03 05:39:00,
2013-01-02 21:54:00,44.9,36.0,30.08,NNW,340,0.0,1.0,70,0.00,,,0.00,weatherlink.com 1.10,2013-01-03 05:54:00,
2013-01-02 22:09:00,46.8,34.0,30.08,NE,39,0.0,1.0,61,0.00,,,0.00,weatherlink.com 1.10,2013-01-03 06:09:00,
2013-01-02 22:24:00,46.2,33.0,30.08,NE,40,0.0,0.0,61,0.00,,,0.00,weatherlink.com 1.10,2013-01-03 06:24:00,
2013-01-02 22:39:00,45.2,34.0,30.08,NE,39,0.0,0.0,64,0.00,,,0.00,weatherlink.com 1.10,2013-01-03 06:39:00,
2013-01-02 22:54:00,44.3,34.0,30.08,NE,39,0.0,0.0,66,0.00,,,0.00,weatherlink.com 1.10,2013-01-03 06:54:00,
2013-01-02 23:09:00,44.9,31.0,30.08,NE,41,0.0,1.0,59,0.00,,,0.00,weatherlink.com 1.10,2013-01-03 07:09:00,
2013-01-02 23:24:00,44.8,34.0,30.09,NE,39,0.0,0.0,66,0.00,,,0.00,weatherlink.com 1.10,2013-01-03 07:24:00,
2013-01-02 23:39:00,45.0,32.0,30.09,NE,39,0.0,0.0,60,0.00,,,0.00,weatherlink.com 1.10,2013-01-03 07:39:00,
2013-01-02 23:54:00,43.6,31.0,30.09,NE,39,0.0,0.0,62,0.00,,,0.00,weatherlink.com 1.10,2013-01-03 07:54:00,